TimeCST,TemperatureF,Dew PointF,Humidity,Sea Level PressureIn,VisibilityMPH,Wind Direction,Wind SpeedMPH,Gust SpeedMPH,PrecipitationIn,Events,Conditions,WindDirDegrees,DateUTC
12:15 AM,50.0,45.9,86,29.74,10.0,SSE,13.8,-,N/A,,Clear,150,2012-12-03 06:15:00
12:35 AM,50.0,46.2,87,29.73,7.0,SSE,13.8,21.9,N/A,,Clear,150,2012-12-03 06:35:00
12:55 AM,50.0,46.6,88,29.72,7.0,SSE,12.7,19.6,N/A,,Clear,150,2012-12-03 06:55:00
1:15 AM,50.2,47.3,90,29.71,7.0,SSE,15.0,-,N/A,,Clear,150,2012-12-03 07:15:00
1:35 AM,50.0,47.1,90,29.70,7.0,SSE,11.5,-,N/A,,Clear,150,2012-12-03 07:35:00
1:55 AM,50.0,46.9,89,29.69,7.0,SE,10.4,-,N/A,,Clear,130,2012-12-03 07:55:00
2:15 AM,49.1,46.4,90,29.68,7.0,SE,10.4,-,N/A,,Clear,140,2012-12-03 08:15:00
2:35 AM,49.1,46.4,90,29.67,7.0,SE,11.5,-,N/A,,Clear,140,2012-12-03 08:35:00
2:55 AM,49.3,46.6,90,29.65,7.0,SE,11.5,-,N/A,,Clear,140,2012-12-03 08:55:00
3:15 AM,49.1,46.0,89,29.65,7.0,SE,9.2,-,N/A,,Clear,140,2012-12-03 09:15:00
3:35 AM,50.2,47.3,90,29.64,7.0,SSE,9.2,-,N/A,,Clear,150,2012-12-03 09:35:00
3:55 AM,52.0,49.1,90,29.62,7.0,SSE,15.0,20.7,N/A,,Clear,160,2012-12-03 09:55:00
4:15 AM,52.3,49.6,91,29.62,7.0,SSE,17.3,-,N/A,,Clear,160,2012-12-03 10:15:00
4:35 AM,51.8,49.3,91,29.60,5.0,SSE,16.1,-,N/A,,Clear,160,2012-12-03 10:35:00
4:55 AM,51.8,49.6,92,29.60,5.0,SSE,13.8,-,N/A,,Clear,160,2012-12-03 10:55:00
5:15 AM,50.9,49.1,94,29.61,4.0,SSE,9.2,-,N/A,,Clear,160,2012-12-03 11:15:00
5:35 AM,50.2,48.4,94,29.61,2.5,SSE,8.1,-,N/A,,Clear,160,2012-12-03 11:35:00
5:55 AM,50.2,48.6,94,29.62,2.5,SSE,6.9,-,N/A,,Mostly Cloudy,150,2012-12-03 11:55:00
6:15 AM,50.0,48.4,94,29.62,1.5,SSE,9.2,-,N/A,,Mostly Cloudy,150,2012-12-03 12:15:00
6:35 AM,48.9,47.3,94,29.62,0.5,SSE,5.8,-,N/A,Fog,Fog,150,2012-12-03 12:35:00
6:55 AM,48.6,47.3,95,29.64,0.2,Calm,Calm,-,N/A,Fog,Fog,0,2012-12-03 12:55:00
7:15 AM,48.7,47.5,95,29.63,0.2,South,3.5,-,N/A,Fog,Fog,170,2012-12-03 13:15:00
7:35 AM,48.2,46.9,95,29.62,0.2,South,6.9,-,N/A,Fog,Fog,170,2012-12-03 13:35:00
7:55 AM,49.8,48.6,95,29.61,0.2,South,9.2,-,N/A,Fog,Fog,180,2012-12-03 13:55:00
8:15 AM,50.5,49.3,95,29.61,0.2,South,10.4,-,N/A,,Drizzle,190,2012-12-03 14:15:00
8:35 AM,50.5,49.5,96,29.64,0.2,South,8.1,-,N/A,,Light Drizzle,190,2012-12-03 14:35:00
8:55 AM,51.1,50.0,96,29.65,0.2,SW,9.2,-,N/A,,Light Drizzle,220,2012-12-03 14:55:00
9:15 AM,51.8,50.4,95,29.66,0.2,SW,8.1,-,N/A,Fog,Fog,220,2012-12-03 15:15:00
9:35 AM,51.8,50.5,95,29.67,0.5,SW,9.2,-,N/A,Fog,Fog,230,2012-12-03 15:35:00
9:55 AM,51.8,50.7,96,29.66,4.0,West,8.1,18.4,N/A,,Overcast,260,2012-12-03 15:55:00
10:15 AM,50.5,49.5,96,29.69,5.0,West,8.1,-,N/A,,Mostly Cloudy,260,2012-12-03 16:15:00
10:35 AM,50.2,49.1,96,29.70,5.0,West,9.2,-,N/A,,Scattered Clouds,260,2012-12-03 16:35:00
10:55 AM,50.4,48.6,94,29.71,10.0,WNW,10.4,-,N/A,,Clear,290,2012-12-03 16:55:00
11:15 AM,52.0,45.5,79,29.71,10.0,NW,16.1,20.7,N/A,,Clear,310,2012-12-03 17:15:00
11:35 AM,55.2,43.2,64,29.72,10.0,NNW,13.8,18.4,N/A,,Clear,330,2012-12-03 17:35:00
11:55 AM,57.6,43.3,59,29.74,10.0,NW,15.0,28.8,N/A,,Clear,320,2012-12-03 17:55:00
12:15 PM,59.7,41.5,51,29.74,10.0,NNW,26.5,41.4,N/A,,Clear,330,2012-12-03 18:15:00
12:35 PM,60.6,41.0,48,29.74,10.0,NNW,28.8,34.5,N/A,,Clear,330,2012-12-03 18:35:00
12:55 PM,60.8,40.1,46,29.76,10.0,NNW,26.5,35.7,N/A,,Clear,340,2012-12-03 18:55:00
1:15 PM,61.2,39.6,45,29.76,10.0,NNW,26.5,34.5,N/A,,Clear,340,2012-12-03 19:15:00
1:35 PM,61.5,38.7,43,29.78,10.0,NNW,24.2,31.1,N/A,,Clear,330,2012-12-03 19:35:00
1:55 PM,61.7,38.3,42,29.80,10.0,NW,21.9,28.8,N/A,,Clear,320,2012-12-03 19:55:00
2:15 PM,61.3,35.4,38,29.80,10.0,NW,26.5,33.4,N/A,,Clear,310,2012-12-03 20:15:00
2:35 PM,61.0,33.3,35,29.82,10.0,NNW,27.6,32.2,N/A,,Clear,330,2012-12-03 20:35:00
2:55 PM,60.4,34.0,37,29.83,10.0,NNW,21.9,28.8,N/A,,Clear,330,2012-12-03 20:55:00
3:15 PM,59.7,33.6,37,29.86,10.0,NNW,15.0,-,N/A,,Clear,330,2012-12-03 21:15:00
3:35 PM,59.2,34.2,39,29.87,10.0,NW,13.8,-,N/A,,Clear,320,2012-12-03 21:35:00
3:55 PM,59.4,32.4,36,29.88,10.0,NW,19.6,27.6,N/A,,Clear,320,2012-12-03 21:55:00
4:15 PM,58.3,30.7,35,29.89,10.0,NW,21.9,26.5,N/A,,Clear,320,2012-12-03 22:15:00
4:35 PM,56.5,27.5,33,29.92,10.0,NNW,16.1,-,N/A,,Clear,330,2012-12-03 22:35:00
4:55 PM,54.9,28.0,36,29.93,10.0,NNW,11.5,-,N/A,,Clear,330,2012-12-03 22:55:00
5:15 PM,52.3,28.8,40,29.94,10.0,NW,6.9,-,N/A,,Clear,310,2012-12-03 23:15:00
5:35 PM,51.8,30.0,43,29.94,10.0,NW,6.9,-,N/A,,Clear,310,2012-12-03 23:35:00
5:55 PM,50.9,30.9,46,29.95,10.0,NW,8.1,-,N/A,,Clear,310,2012-12-03 23:55:00
6:15 PM,50.9,30.9,46,29.96,10.0,WNW,4.6,-,N/A,,Clear,290,2012-12-04 00:15:00
6:35 PM,49.3,30.9,49,29.98,10.0,WNW,6.9,-,N/A,,Clear,290,2012-12-04 00:35:00
6:55 PM,49.1,30.9,50,29.98,10.0,West,6.9,-,N/A,,Clear,280,2012-12-04 00:55:00
7:15 PM,47.3,30.2,52,29.99,10.0,WNW,6.9,-,N/A,,Clear,290,2012-12-04 01:15:00
7:35 PM,46.6,29.3,51,30.00,10.0,WNW,5.8,-,N/A,,Clear,300,2012-12-04 01:35:00
7:55 PM,46.0,27.9,49,30.01,10.0,NW,5.8,-,N/A,,Clear,310,2012-12-04 01:55:00
8:15 PM,46.8,25.5,43,30.01,10.0,NW,10.4,-,N/A,,Clear,310,2012-12-04 02:15:00
8:35 PM,46.8,24.8,42,30.02,10.0,NW,9.2,-,N/A,,Clear,320,2012-12-04 02:35:00
8:55 PM,47.3,24.1,40,30.03,10.0,NW,11.5,-,N/A,,Clear,320,2012-12-04 02:55:00
9:15 PM,45.0,23.9,44,30.04,10.0,NW,8.1,-,N/A,,Clear,320,2012-12-04 03:15:00
9:35 PM,45.3,23.7,43,30.05,10.0,WNW,6.9,-,N/A,,Clear,300,2012-12-04 03:35:00
9:55 PM,43.7,23.9,46,30.06,10.0,WNW,5.8,-,N/A,,Clear,290,2012-12-04 03:55:00
10:15 PM,43.0,24.1,47,30.06,10.0,WNW,9.2,-,N/A,,Clear,290,2012-12-04 04:15:00
10:35 PM,41.9,24.3,50,30.06,10.0,WNW,6.9,-,N/A,,Clear,290,2012-12-04 04:35:00
10:55 PM,41.9,24.3,50,30.07,10.0,West,5.8,-,N/A,,Clear,280,2012-12-04 04:55:00
11:15 PM,41.9,23.9,49,30.07,10.0,West,6.9,-,N/A,,Clear,280,2012-12-04 05:15:00
11:35 PM,40.5,23.9,52,30.08,10.0,West,4.6,-,N/A,,Clear,280,2012-12-04 05:35:00